Time,TemperatureF,DewpointF,PressureIn,WindDirection,WindDirectionDegrees,WindSpeedMPH,WindSpeedGustMPH,Humidity,HourlyPrecipIn,Conditions,Clouds,dailyrainin,SoftwareType,DateUTC
2013-01-30 00:00:00,-10.0,-13.0,-100.00,NNW,344,22.0,49.0,82,-99.99,,,-99.99,,2013-01-30 07:00:00,
2013-01-30 00:42:00,-10.0,-13.0,-100.00,NNW,344,22.0,49.0,82,-99.99,,,-99.99,,2013-01-30 07:42:00,
2013-01-30 00:52:00,-10.0,-13.0,-100.00,NNW,344,22.0,49.0,82,-99.99,,,-99.99,,2013-01-30 07:52:00,
2013-01-30 01:00:00,-10.0,-14.0,-100.00,NNW,346,24.0,42.0,83,-99.99,,,-99.99,,2013-01-30 08:00:00,
2013-01-30 01:42:00,-10.0,-14.0,-100.00,NNW,346,24.0,42.0,83,-99.99,,,-99.99,,2013-01-30 08:42:00,
2013-01-30 01:52:00,-10.0,-14.0,-100.00,NNW,346,24.0,42.0,83,-99.99,,,-99.99,,2013-01-30 08:52:00,
2013-01-30 03:00:00,-11.0,-15.0,-100.00,NNW,335,19.0,38.0,82,-99.99,,,-99.99,,2013-01-30 10:00:00,
2013-01-30 03:42:00,-11.0,-15.0,-100.00,NNW,335,19.0,38.0,82,-99.99,,,-99.99,,2013-01-30 10:42:00,
2013-01-30 03:52:00,-11.0,-15.0,-100.00,NNW,335,19.0,38.0,82,-99.99,,,-99.99,,2013-01-30 10:52:00,
2013-01-30 04:00:00,-11.0,-15.0,-100.00,NNW,334,18.0,42.0,82,-99.99,,,-99.99,,2013-01-30 11:00:00,
2013-01-30 04:42:00,-11.0,-15.0,-100.00,NNW,334,18.0,42.0,82,-99.99,,,-99.99,,2013-01-30 11:42:00,
2013-01-30 04:52:00,-11.0,-15.0,-100.00,NNW,334,18.0,42.0,82,-99.99,,,-99.99,,2013-01-30 11:52:00,
2013-01-30 05:00:00,-11.0,-15.0,-100.00,NNW,342,19.0,39.0,82,-99.99,,,-99.99,,2013-01-30 12:00:00,
2013-01-30 05:43:00,-11.0,-15.0,-100.00,NNW,342,19.0,39.0,82,-99.99,,,-99.99,,2013-01-30 12:43:00,
2013-01-30 06:00:00,-10.0,-14.0,-100.00,NNW,330,21.0,39.0,83,-99.99,,,-99.99,,2013-01-30 13:00:00,
2013-01-30 06:43:00,-10.0,-14.0,-100.00,NNW,330,21.0,39.0,83,-99.99,,,-99.99,,2013-01-30 13:43:00,
2013-01-30 06:53:00,-10.0,-14.0,-100.00,NNW,330,21.0,39.0,83,-99.99,,,-99.99,,2013-01-30 13:53:00,
2013-01-30 07:00:00,-8.0,-11.0,-100.00,NNW,334,20.0,47.0,84,-99.99,,,-99.99,,2013-01-30 14:00:00,
2013-01-30 07:43:00,-8.0,-11.0,-100.00,NNW,334,20.0,47.0,84,-99.99,,,-99.99,,2013-01-30 14:43:00,
2013-01-30 07:53:00,-8.0,-11.0,-100.00,NNW,334,20.0,47.0,84,-99.99,,,-99.99,,2013-01-30 14:53:00,
2013-01-30 08:00:00,-6.0,-9.0,-100.00,NNW,337,20.0,54.0,85,-99.99,,,-99.99,,2013-01-30 15:00:00,
2013-01-30 08:43:00,-6.0,-9.0,-100.00,NNW,337,20.0,54.0,85,-99.99,,,-99.99,,2013-01-30 15:43:00,
2013-01-30 08:53:00,-6.0,-9.0,-100.00,NNW,337,20.0,54.0,85,-99.99,,,-99.99,,2013-01-30 15:53:00,
2013-01-30 09:00:00,-4.0,-7.0,-100.00,NNW,335,24.0,50.0,85,-99.99,,,-99.99,,2013-01-30 16:00:00,
2013-01-30 09:42:00,-4.0,-7.0,-100.00,NNW,335,24.0,50.0,85,-99.99,,,-99.99,,2013-01-30 16:42:00,
2013-01-30 09:52:00,-4.0,-7.0,-100.00,NNW,335,24.0,50.0,85,-99.99,,,-99.99,,2013-01-30 16:52:00,
2013-01-30 10:00:00,0.0,-4.0,-100.00,NNW,339,26.0,53.0,86,-99.99,,,-99.99,,2013-01-30 17:00:00,
2013-01-30 10:43:00,0.0,-4.0,-100.00,NNW,339,26.0,53.0,86,-99.99,,,-99.99,,2013-01-30 17:43:00,
2013-01-30 10:53:00,0.0,-4.0,-100.00,NNW,339,26.0,53.0,86,-99.99,,,-99.99,,2013-01-30 17:53:00,
2013-01-30 11:00:00,-2.0,-5.0,-100.00,NNW,327,22.0,47.0,84,-99.99,,,-99.99,,2013-01-30 18:00:00,
2013-01-30 11:43:00,-2.0,-5.0,-100.00,NNW,327,22.0,47.0,84,-99.99,,,-99.99,,2013-01-30 18:43:00,
2013-01-30 11:53:00,-2.0,-5.0,-100.00,NNW,327,22.0,47.0,84,-99.99,,,-99.99,,2013-01-30 18:53:00,
2013-01-30 12:00:00,0.0,-4.0,-100.00,NW,326,18.0,34.0,85,-99.99,,,-99.99,,2013-01-30 19:00:00,
2013-01-30 12:43:00,0.0,-4.0,-100.00,NW,326,18.0,34.0,85,-99.99,,,-99.99,,2013-01-30 19:43:00,
2013-01-30 12:53:00,0.0,-4.0,-100.00,NW,326,18.0,34.0,85,-99.99,,,-99.99,,2013-01-30 19:53:00,
2013-01-30 13:00:00,1.0,-3.0,-100.00,WNW,294,15.0,32.0,86,-99.99,,,-99.99,,2013-01-30 20:00:00,
2013-01-30 13:42:00,1.0,-3.0,-100.00,WNW,294,15.0,32.0,86,-99.99,,,-99.99,,2013-01-30 20:42:00,
2013-01-30 13:53:00,1.0,-3.0,-100.00,WNW,294,15.0,32.0,86,-99.99,,,-99.99,,2013-01-30 20:53:00,
2013-01-30 14:00:00,2.0,-1.0,-100.00,WNW,302,22.0,43.0,88,-99.99,,,-99.99,,2013-01-30 21:00:00,
2013-01-30 14:43:00,2.0,-1.0,-100.00,WNW,302,22.0,43.0,88,-99.99,,,-99.99,,2013-01-30 21:43:00,
2013-01-30 14:52:00,2.0,-1.0,-100.00,WNW,302,22.0,43.0,88,-99.99,,,-99.99,,2013-01-30 21:52:00,
2013-01-30 15:00:00,2.0,-1.0,-100.00,NW,307,19.0,35.0,88,-99.99,,,-99.99,,2013-01-30 22:00:00,
2013-01-30 15:42:00,2.0,-1.0,-100.00,NW,307,19.0,35.0,88,-99.99,,,-99.99,,2013-01-30 22:42:00,
2013-01-30 15:53:00,2.0,-1.0,-100.00,NW,307,19.0,35.0,88,-99.99,,,-99.99,,2013-01-30 22:53:00,
2013-01-30 16:00:00,2.0,-1.0,-100.00,NW,305,17.0,29.0,88,-99.99,,,-99.99,,2013-01-30 23:00:00,
2013-01-30 16:42:00,2.0,-1.0,-100.00,NW,305,17.0,29.0,88,-99.99,,,-99.99,,2013-01-30 23:42:00,
2013-01-30 16:52:00,2.0,-1.0,-100.00,NW,305,17.0,29.0,88,-99.99,,,-99.99,,2013-01-30 23:52:00,
2013-01-30 17:00:00,2.0,0.0,-100.00,NW,306,21.0,42.0,89,-99.99,,,-99.99,,2013-01-31 00:00:00,
2013-01-30 17:42:00,2.0,0.0,-100.00,NW,306,21.0,42.0,89,-99.99,,,-99.99,,2013-01-31 00:42:00,
2013-01-30 17:53:00,2.0,0.0,-100.00,NW,306,21.0,42.0,89,-99.99,,,-99.99,,2013-01-31 00:53:00,
2013-01-30 18:00:00,3.0,1.0,-100.00,NW,319,27.0,46.0,89,-99.99,,,-99.99,,2013-01-31 01:00:00,
2013-01-30 18:42:00,3.0,1.0,-100.00,NW,319,27.0,46.0,89,-99.99,,,-99.99,,2013-01-31 01:42:00,
2013-01-30 18:52:00,3.0,1.0,-100.00,NW,319,27.0,46.0,89,-99.99,,,-99.99,,2013-01-31 01:52:00,
2013-01-30 19:00:00,4.0,2.0,-100.00,NW,316,26.0,50.0,90,-99.99,,,-99.99,,2013-01-31 02:00:00,
2013-01-30 20:00:00,5.0,2.0,-100.00,NW,322,24.0,39.0,90,-99.99,,,-99.99,,2013-01-31 03:00:00,
2013-01-30 20:42:00,5.0,2.0,-100.00,NW,322,24.0,39.0,90,-99.99,,,-99.99,,2013-01-31 03:42:00,
2013-01-30 20:52:00,5.0,2.0,-100.00,NW,322,24.0,39.0,90,-99.99,,,-99.99,,2013-01-31 03:52:00,
2013-01-30 21:00:00,5.0,3.0,-100.00,NW,321,23.0,42.0,90,-99.99,,,-99.99,,2013-01-31 04:00:00,
2013-01-30 21:42:00,5.0,3.0,-100.00,NW,321,23.0,42.0,90,-99.99,,,-99.99,,2013-01-31 04:42:00,
2013-01-30 21:52:00,5.0,3.0,-100.00,NW,321,23.0,42.0,90,-99.99,,,-99.99,,2013-01-31 04:52:00,
2013-01-30 22:00:00,5.0,3.0,-100.00,NW,320,24.0,37.0,90,-99.99,,,-99.99,,2013-01-31 05:00:00,
2013-01-30 22:42:00,5.0,3.0,-100.00,NW,320,24.0,37.0,90,-99.99,,,-99.99,,2013-01-31 05:42:00,
2013-01-30 22:52:00,5.0,3.0,-100.00,NW,320,24.0,37.0,90,-99.99,,,-99.99,,2013-01-31 05:52:00,